Flag Weather past 2 weeks in Samara, Russia

Now
10 °F

Clear.


Feels Like: -2 °F
Forecast: 10 / 20 °F
Wind: 8 mph from Southwest

Location: Samara

Current Time: Nov 26, 2014 at 9:29:41 AM

Latest Report: Nov 26, 2014 at 9:00 AM


Visibility: 10 mi

Pressure: 30.48 "Hg

Humidity: 79%

Dew point: 5 °F

Location of SamaraLocation

Historic Weather in Samara — Graph

°F

Samara temperature yesterday

Maximum temperature yesterday: 19 °F (at 1:30 PM)
Minimum temperature yesterday: 3 °F (at 1:30 AM)
Average temperature yesterday: 11 °F

Past Weeks' High & Low Weather Summary

 TemperatureHumidityPressure
High41 °F (Nov 12, 3:00 PM)93% (Nov 21, 12:00 AM)30.83 "Hg (Nov 21, 12:00 AM)
Low3 °F (Nov 24, 7:00 AM)56% (Nov 22, 2:00 PM)30.09 "Hg (Nov 23, 6:00 AM)
Average23 °F78%30.51 "Hg
* Reported Nov 11 8:00 AM — Nov 26 8:30 AM, Samara, Weather by CustomWeather, © 2014

Note: Actual official high and low records may vary slightly from our data, if they occured in-between our weather recording intervals... More about our weather records

Advertising

Samara weather history for previous 24 hours

 ConditionsComfort  
Time TempWeatherWind HumidityBarometerVisibility
8:30 AM
Nov 26
10 °FClear.8 mph72%30.48 "Hg10 mi
8:00 AM9 °FClear.8 mph72%30.48 "Hg10 mi
7:30 AM9 °FClear.8 mph78%30.51 "Hg10 mi
7:00 AM7 °FClear.8 mph78%30.51 "Hg10 mi
6:30 AM7 °FClear.6 mph78%30.51 "Hg10 mi
6:00 AM7 °FClear.8 mph78%30.51 "Hg10 mi
5:30 AM9 °FIce fog.6 mph78%30.54 "Hg2 mi
5:00 AM7 °FIce fog.6 mph78%30.54 "Hg2 mi
4:30 AM7 °FIce fog.6 mph78%30.54 "Hg2 mi
4:00 AM9 °FIce fog.8 mph78%30.57 "Hg3 mi
3:30 AM9 °FIce fog.8 mph78%30.57 "Hg3 mi
3:00 AM9 °FIce fog.6 mph78%30.57 "Hg2 mi
2:30 AM7 °FClear.6 mph78%30.57 "Hg10 mi
2:00 AM7 °FClear.6 mph78%30.57 "Hg10 mi
1:30 AM7 °FClear.6 mph78%30.57 "Hg10 mi
1:00 AM7 °FClear.6 mph78%30.60 "Hg10 mi
12:30 AM7 °FClear.6 mph78%30.60 "Hg10 mi
12:00 AM9 °FClear.3 mph72%30.60 "Hg10 mi
11:30 PM
Nov 25
9 °FPartly cloudy.6 mph72%30.60 "HgN/A
11:00 PM9 °FPartly cloudy.3 mph78%30.63 "HgN/A
10:30 PM9 °FPartly cloudy.6 mph78%30.63 "HgN/A
10:00 PM10 °FPartly cloudy.6 mph72%30.63 "HgN/A
9:30 PM10 °FOvercast.6 mph72%30.66 "HgN/A
9:00 PM10 °FOvercast.3 mph85%30.66 "HgN/A
8:30 PM12 °FPartly cloudy.3 mph85%30.66 "HgN/A
8:00 PM14 °FPartly cloudy.3 mph79%30.66 "HgN/A
7:30 PM16 °FPartly cloudy.3 mph73%30.66 "HgN/A
7:00 PM14 °FPartly cloudy.6 mph79%30.66 "HgN/A
6:30 PM12 °FPartly cloudy.6 mph79%30.66 "HgN/A
6:00 PM14 °FPartly cloudy.3 mph79%30.69 "HgN/A
5:30 PM14 °FBroken clouds.3 mph79%30.69 "HgN/A
5:00 PM12 °FCloudy.6 mph79%30.69 "HgN/A
4:30 PM16 °FCloudy.6 mph73%30.69 "HgN/A
4:00 PM18 °FCloudy.8 mph73%30.69 "HgN/A
3:30 PM19 °FLight snow. Cloudy.8 mph68%30.69 "HgN/A
3:00 PM19 °FCloudy.8 mph68%30.72 "HgN/A
2:00 PM19 °FCloudy.10 mph63%30.72 "HgN/A
1:30 PM19 °FCloudy.13 mph63%30.72 "HgN/A
1:00 PM18 °FLight snow. Cloudy.8 mph68%30.74 "Hg3 mi
12:30 PM18 °FLight snow. Cloudy.6 mph73%30.74 "Hg2 mi
12:00 PM18 °FLight snow. Mostly cloudy.6 mph79%30.74 "Hg1 mi
11:30 AM16 °FLight snow. Mostly cloudy.8 mph79%30.74 "Hg2 mi
11:00 AM16 °FLight snow. Mostly cloudy.6 mph79%30.77 "Hg2 mi
10:30 AM16 °FLight snow. Mostly cloudy.8 mph79%30.74 "Hg2 mi
10:00 AM16 °FLight snow. Mostly cloudy.6 mph79%30.74 "Hg2 mi
9:30 AM14 °FLight snow. Mostly cloudy.6 mph79%30.74 "Hg1 mi
9:00 AM12 °FLight snow. Mostly cloudy.3 mph85%30.77 "Hg2 mi
Weather by CustomWeather, © 2014

See weather overviewHow to use our weather pages